Regional Weather Roundup
Issued by NWS Grand Forks, ND

Home | Current Version | Previous Version | Text Only | Print | Product List | Glossary Off
Versions: 1 2 3 4 5 6 7 8 9 10 11 12 13 14 15 16 17 18 19 20 21 22 23 24 25 26 27 28 29 30 31 32 33 34 35 36 37 38 39 40 41 42 43 44 45 46 47 48 49 50

000
ASUS43 KFGF 052331
RWRFGF
PRAIRIE TO PINES  WEATHER ROUNDUP
NATIONAL WEATHER SERVICE EASTERN NORTH DAKOTA/GRAND FORKS ND
600 PM CDT SUN JUL 05 2015

 **SATELLITE DATA USED TO AUGMENT SKY COVER AT AUTOMATED STATIONS**
 *****  WEATHER ACROSS EASTERN NORTH DAKOTA  *****

CITY           SKY/WX    TMP DP  RH WIND       PRES   REMARKS
GRAND FORKS    PTSUNNY   77  67  71 N12       29.79S
GRAND FRKS AFB MOSUNNY   75  66  73 N13       29.81S
GRAND FRKS NWS   N/A     75 N/A N/A MISG        N/A
DEVILS LAKE    MOSUNNY   72  61  68 NW12      29.86R
FARGO          PTSUNNY   84  70  62 NW10      29.76R
WAHPETON ARPT  MOCLDY    82  68  61 NW8       29.75F
$$

 ***** WEATHER ACROSS CENTRAL AND WESTERN NORTH DAKOTA  *****

CITY           SKY/WX    TMP DP  RH WIND       PRES   REMARKS
BISMARCK       CLOUDY    73  60  63 N9        29.92R HAZE
MINOT          CLOUDY    72  58  61 NW12      29.92R HAZE
JAMESTOWN      LGT RAIN  74  64  71 N13       29.86R
MINOT AFB      CLOUDY    75  63  65 NW10      29.92R HAZE
GARRISON         N/A     72  60  66 N12       29.92S
WILLISTON      PTSUNNY   75  47  36 N15       30.01R
DICKINSON      CLOUDY    67  55  65 NW6       29.99R HAZE
HETTINGER      CLOUDY    66  55  67 N16G23    30.01R HAZE
$$

 *****  OTHER AIRPORT OBSERVATIONS IN OUR AREA  *****

CITY           SKY/WX    TMP DP  RH WIND       PRES   REMARKS
WALHALLA       FAIR      72  61  68 MISG      29.84R HAZE
GRAFTON AIRPOR FAIR      73  68  83 NW12      29.82S HAZE
VALLEY CITY AR FAIR      75  68  78 N16       29.85R
CANDO          FAIR      68  59  73 N13       29.90R HAZE
CAVALIER APRT  FAIR      72  57  60 NW9       29.83R HAZE
GWINNER        FAIR      82  72  69 NW16G22   29.79R
ROLLA          FAIR      66  57  72 NW8       29.92S HAZE
 ***** THE ABOVE OBSERVATIONS ARE NON NWS ARE NOT QUALITY
       CONTROLLED AND MAY MIS-REPORT RAIN FOR SNOW...
$$

  *****  WEATHER ACROSS NORTHERN MINNESOTA  *****

CITY           SKY/WX    TMP DP  RH WIND       PRES   REMARKS
FLAG ISLAND    MOSUNNY   70  64  83 NW12      29.76R
WARROAD        PTSUNNY   72  66  83 NW9       29.79R
ROSEAU         MOSUNNY   73  66  78 NW10      29.79R
HALLOCK        MOSUNNY   73  66  78 NW10      29.81R HAZE
THF RVR FALLS  PTSUNNY   73  66  78 W8        29.81R
BAUDETTE       CLOUDY    71  65  81 NW10      29.77R
WASKISH        CLOUDY    72  66  83 W12       29.77F
CROOKSTON      MOSUNNY   75  70  83 N14       29.80S
STEPHEN NDAWN    N/A     73  66  78 N13         N/A
GREENBUSH NDAW   N/A     73  66  78 NW10        N/A
$$
  *****  WEATHER ACROSS CENTRAL AND WEST MINNESOTA  *****

CITY           SKY/WX    TMP DP  RH WIND       PRES   REMARKS
FOSSTON        PTSUNNY   73  64  73 NW13G18   29.80R
BEMIDJI        PTSUNNY   73  64  75 NE6G17    29.75F THUNDER
PARK RAPIDS    MOSUNNY   83  66  56 SW13      29.77S
ELBOW LAKE     FAIR      86  73  64 W9        29.75S HX  92
WADENA         PTSUNNY   82  68  61 SW8       29.77S
DETROIT LAKES  MOSUNNY   82  68  61 SW9       29.78S
MOORHEAD       SUNNY     81  72  74 N13       29.77S
FERGUS FALLS   PTSUNNY   84  72  65 NW10      29.74S
MORRIS MN      PTSUNNY   88  70  55 S13       29.74S HX  92
STAPLES        CLOUDY    82  66  57 S10       29.77F
$$
  *****  WEATHER ELSEWHERE ACROSS MINNESOTA  *****

CITY           SKY/WX    TMP DP  RH WIND       PRES   REMARKS
DULUTH         PTSUNNY   81  67  62 S17       29.80F
INTRNTL FALLS  LGT RAIN  74  64  71 W8        29.75R
ELY            CLOUDY    79  64  61 S8G21     29.77R
CLOQUET        PTSUNNY   81  66  61 S14G21    29.80F
WHEATON        PTSUNNY   82  72  69 NW8       29.76S
BRAINERD       PTSUNNY   85  69  58 S14       29.77F
HIBBING        CLOUDY    82  68  62 S8        29.76F
ALEXANDRIA     CLOUDY    84  69  60 S15G24    29.78F
SAINT CLOUD    CLOUDY    83  70  64 S14       29.80F
MINNEAPOLIS    PTSUNNY   88  69  53 S14G23    29.83F HX  92
$$

  *****  WEATHER ACROSS SOUTH DAKOTA  *****

CITY           SKY/WX    TMP DP  RH WIND       PRES   REMARKS
SIOUX FALLS    PTSUNNY   86  73  65 SE16      29.78F HX  93
BROOKINGS      PTSUNNY   82  70  65 SE14      29.80S
WATERTOWN      PTSUNNY   88  69  53 S10       29.77F HX  92
HURON          PTSUNNY   88  73  61 SW5       29.72F HX  95
SISSETON         N/A     86  70  58 N7        29.74R HX  90
ABERDEEN       PTSUNNY   84  74  71 N16       29.77R HX  91
MITCHELL       MOSUNNY   87  73  62 SE16      29.73F HX  94
PIERRE         CLOUDY    83  72  69 N12       29.77R
MOBRIDGE       LGT RAIN  76  68  76 N14       29.86R
RAPID CITY     CLOUDY    73  62  68 N24G36    29.94R
$$

  *****  SOME WEATHER IN NEARBY STATES *****

CITY           SKY/WX    TMP DP  RH WIND       PRES   REMARKS
GLASGOW MT     PTSUNNY   68  47  46 W10       30.08S
GREAT FALLS MT CLOUDY    52  50  93 N7        30.20S
CHEYENNE WY    CLOUDY    64  57  78 NW18G26   30.06F
SCOTTSBLUFF NE TSTM      64  60  87 N12G28    29.97R FOG
OMAHA NE       PTSUNNY   90  74  59 S22       29.81S HX  99
DES MOINES IA  PTSUNNY   86  69  56 SE17      29.90F HX  90
DAVENPORT IA   PTSUNNY   79  65  62 S8        30.00S
CHICAGO IL     MOSUNNY   81  60  48 SW8       30.02F
EAU CLAIRE WI  MOSUNNY   82  65  56 S15       29.90F
LA CROSSE WI   MOSUNNY   83  65  54 S16       29.93F
$$

  *****  SOME NATIONAL WEATHER *****

CITY           SKY/WX    TMP DP  RH WIND       PRES   REMARKS
LA GUARDIA NY  PTSUNNY   80  62  54 S9        30.10R
RALEIGH NC     PTSUNNY   81  68  64 SE3       30.06S
ATLANTA GA     PTSUNNY   82  64  54 SW12      30.09F
NEW ORLEANS LA TSTM      72  70  93 N23G41    30.14S FOG
OKLAHOMA CITY  MOSUNNY   89  72  56 S16G22    29.90F HX  96
ALBUQUERQUE NM CLOUDY    78  56  46 SW14      30.08R
SALT LAKE CITY MOSUNNY   88  57  34 VRB6      29.96F
LOS ANGELES CA PTSUNNY   69  60  73 W13       29.97S
BOISE ID       LGT RAIN  77  54  44 CALM      29.97S
SEATTLE WA     PTSUNNY   91  49  23 VRB5      29.84F
$$

*** WEATHER ACROSS MANITOBA...SASKATCHEWAN AND ONTARIO ***
                ***ONTARIO***

CITY           SKY/WX    TMP DP  RH WIND       PRES   REMARKS
GERALDTON      CLOUDY    72  63  73 S8        29.81F HAZE
THUNDER BAY    CLOUDY    75  63  64 S8G20     29.79F
SIOUX LOOKOUT  LGT RAIN  68  66  94 W6        29.70R FOG
TORONTO        PTSUNNY   77  63  61 SE7       30.06F
BIG TROUT LK   MOSUNNY   68  59  73 SW7       29.64F HAZE
PICKLE LAKE    TSTM      63  63 100 NW8       29.71S FOG
DRYDEN         LGT RAIN  70  66  88 W9        29.73R
KENORA         CLOUDY    66  64  94 NW8       29.76R
$$
                *** MANITOBA***

CITY           SKY/WX    TMP DP  RH WIND       PRES   REMARKS
BRANDON        PTSUNNY   72  54  53 NW15G21   29.90R SMOKE
DAUPHIN        PTSUNNY   66  52  59 N20G25    29.89R HAZE
ISLAND LAKE    CLOUDY    55  46  71 NW18G29   29.73S
PILOT MOUND      N/A     68  59  73 NW10        N/A
THE PAS        CLOUDY    59  45  58 N13G20    29.96R
THOMPSON       LGT RAIN  45  43  93 N14G23    29.89R
WINNIPEG       SUNNY     70  61  73 NW12      29.82R SMOKE
LYNN LAKE      SUNNY     55  37  50 N17G23    30.00R
CHURCHILL      LGT RAIN  41  39  93 N25G33    29.80R FOG
GILLAM         DRIZZLE   46  41  81 N18G28    29.72R
$$
                ***SASKATCHEWAN***

CITY           SKY/WX    TMP DP  RH WIND       PRES   REMARKS
ESTEVAN        MOSUNNY   73  50  43 N15G22    29.98S
KINDERSLEY     CLOUDY    61  48  63 NW15      30.11S
LLOYDMINSTER   PTSUNNY   59  46  63 N7        30.14S
PRINCE ALBERT  PTSUNNY   64  50  59 N8        30.06R
REGINA         MOSUNNY   68  48  49 NW15      30.03R
YORKTON        MOSUNNY   64  50  59 NW17G23   29.97R HAZE
N. BATTLEFORD  CLOUDY    63  48  59 NW14      30.11R
LA RONGE       NOT AVBL
SASKATOON      PTSUNNY   64  48  55 N16G23    30.07R
SWIFT CURRENT  CLOUDY    63  48  59 N16G22    30.09R
$$
NOTE: THESE ARE AUTOMATED STATIONS WITH LIMITED QUALITY CONTROL
      "FAIR" INDICATES FEW OR NO CLOUDS BELOW 12,000 FEET WITH NO
      SIGNIFICANT WEATHER AND/OR OBSTRUCTIONS TO VISIBILITY.
      SKY/WX - SKY CONDITION AND SIGNIFICANT WEATHER.
      TMP - AIR TEMPERATURE.    DP   - DEWPOINT TEMPERATURE.
      RH  - RELATIVE HUMIDITY.  PRES - PRESSURE.
      HX  - HEAT INDEX.         WCI  - WIND CHILL INDEX.
$


USA.gov is the U.S. government's official web portal to all federal, state and local government web resources and services.